N5AET-1 Weather Reports


Display with metric or nautical units.
time (UTC)temp
F
wind
direction
speed
MPH
gust
MPH
rain 1hr
in
rain 24hr
in
rain mn
in
humidity
%
barometer
mb
20260505121016 71 176 5.0 8.0 0.00 0.00 0.00 88 979.0
20260505120016 71 199 4.0 8.0 0.00 0.00 0.00 88 979.0
20260505115016 71 0.0 4.0 0.00 0.00 0.00 88 978.9
20260505114016 71 183 1.0 5.0 0.00 0.00 0.00 88 978.8
20260505113036 71 184 4.0 7.0 0.00 0.00 0.00 88 978.7
20260505112056 71 225 2.0 8.0 0.00 0.00 0.00 88 978.7
20260505111036 71 192 2.0 4.0 0.00 0.00 0.00 88 978.8
20260505102016 71 144 2.0 6.0 0.00 0.00 0.00 87 978.9
20260505101016 71 206 1.0 6.0 0.00 0.00 0.00 87 978.8
20260505100016 71 196 2.0 6.0 0.00 0.00 0.00 87 978.9
20260505095016 72 190 3.0 8.0 0.00 0.00 0.00 87 979.0
20260505094016 71 146 0.0 3.0 0.00 0.00 0.00 87 979.0
20260505093016 71 152 3.0 9.0 0.00 0.00 0.00 87 979.0
20260505092016 71 0.0 2.0 0.00 0.00 0.00 87 979.1
20260505091016 71 228 3.0 11.0 0.00 0.00 0.00 88 979.3
20260505090016 71 202 1.0 9.0 0.00 0.00 0.00 88 979.1
20260505085036 71 205 0.0 6.0 0.00 0.00 0.00 88 979.2
20260505084016 71 171 2.0 5.0 0.00 0.00 0.00 88 979.2
20260505083016 71 203 2.0 6.0 0.00 0.00 0.00 88 979.2
20260505082016 71 212 1.0 6.0 0.00 0.00 0.00 88 979.3
20260505081036 71 196 1.0 5.0 0.00 0.00 0.00 87 979.3
20260505080016 71 188 1.0 3.0 0.00 0.00 0.00 87 979.4
20260505075056 71 185 0.0 2.0 0.00 0.00 0.00 86 979.5
20260505074016 71 182 3.0 5.0 0.00 0.00 0.00 86 979.7
20260505073016 71 198 0.0 3.0 0.00 0.00 0.00 85 979.9
20260505072016 72 184 1.0 3.0 0.00 0.00 0.00 85 980.1
20260505071016 72 182 1.0 10.0 0.00 0.00 0.00 84 980.1
20260505070016 72 192 2.0 8.0 0.00 0.00 0.00 84 980.2
20260505065016 72 199 0.0 5.0 0.00 0.00 0.00 83 980.3
20260505064016 72 179 1.0 5.0 0.00 0.00 0.00 83 980.5
20260505063056 72 193 2.0 5.0 0.00 0.00 0.00 82 980.5
20260505062036 72 213 0.0 5.0 0.00 0.00 0.00 81 980.4
20260505061036 73 186 1.0 4.0 0.00 0.00 0.00 81 980.5
20260505060016 73 203 2.0 6.0 0.00 0.00 0.00 80 980.6
20260505055016 73 197 2.0 6.0 0.00 0.00 0.00 79 980.6
20260505054016 73 196 2.0 5.0 0.00 0.00 0.00 79 980.6
20260505053016 73 161 0.0 4.0 0.00 0.00 0.00 78 980.9
20260505052016 73 192 4.0 8.0 0.00 0.00 0.00 77 980.9
20260505051016 73 145 0.0 3.0 0.00 0.00 0.00 77 981.0
20260505041016 74 193 1.0 4.0 0.00 0.00 0.00 74 981.2
20260505040036 74 181 0.0 2.0 0.00 0.00 0.00 74 981.3
20260505035036 74 162 1.0 6.0 0.00 0.00 0.00 73 981.1
20260505034016 74 223 1.0 5.0 0.00 0.00 0.00 73 981.1
20260505033016 75 195 2.0 4.0 0.00 0.00 0.00 72 981.1
20260505032016 75 166 2.0 4.0 0.00 0.00 0.00 72 981.2
20260505031016 75 173 2.0 5.0 0.00 0.00 0.00 71 981.3
20260505030016 75 179 0.0 2.0 0.00 0.00 0.00 71 981.2
20260505025016 75 0.0 2.0 0.00 0.00 0.00 70 981.3
20260505024016 75 182 0.0 1.0 0.00 0.00 0.00 70 981.3
20260505023016 75 177 2.0 5.0 0.00 0.00 0.00 70 981.1
20260505022016 75 0.0 1.0 0.00 0.00 0.00 69 981.1
20260505021017 76 203 1.0 5.0 0.00 0.00 0.00 69 980.9
20260505020016 76 189 0.0 5.0 0.00 0.00 0.00 68 980.9
20260505015017 76 0.0 3.0 0.00 0.00 0.00 68 981.0
20260505014016 76 138 0.0 2.0 0.00 0.00 0.00 67 981.0
20260505013016 76 172 2.0 9.0 0.00 0.00 0.00 67 981.0
20260505012036 77 201 2.0 4.0 0.00 0.00 0.00 66 981.0
20260505011016 77 179 1.0 4.0 0.00 0.00 0.00 66 981.0
20260505010016 77 162 2.0 4.0 0.00 0.00 0.00 65 980.9
20260505005017 77 170 0.0 3.0 0.00 0.00 0.00 64 980.8
20260505004016 78 197 1.0 8.0 0.00 0.00 0.00 64 980.9
20260505003016 78 181 1.0 6.0 0.00 0.00 0.00 62 981.0
20260505002017 79 158 1.0 7.0 0.00 0.00 0.00 61 981.0
20260505001036 79 160 2.0 5.0 0.00 0.00 0.00 61 981.2
20260505000016 79 190 1.0 8.0 0.00 0.00 0.00 61 981.2
20260504235016 79 201 6.0 9.0 0.00 0.00 0.00 61 981.4
20260504234016 79 189 3.0 7.0 0.00 0.00 0.00 61 981.4
20260504233016 79 186 5.0 11.0 0.00 0.00 0.00 59 981.3
20260504232017 80 159 4.0 9.0 0.00 0.00 0.00 59 981.3
20260504231016 80 193 4.0 8.0 0.00 0.00 0.00 58 981.5
20260504230016 81 206 3.0 10.0 0.00 0.00 0.00 57 981.6
20260504225057 81 167 4.0 7.0 0.00 0.00 0.00 57 981.8
20260504224016 82 185 4.0 7.0 0.00 0.00 0.00 56 981.7
20260504223016 81 216 1.0 3.0 0.00 0.00 0.00 57 981.7
20260504222016 81 185 4.0 10.0 0.00 0.00 0.00 57 981.7
20260504221016 81 154 5.0 9.0 0.00 0.00 0.00 57 981.8
20260504220016 81 163 5.0 7.0 0.00 0.00 0.00 56 982.1
20260504215017 82 173 3.0 6.0 0.00 0.00 0.00 56 982.1
20260504214016 82 198 6.0 11.0 0.00 0.00 0.00 56 982.4
20260504213018 82 195 3.0 7.0 0.00 0.00 0.00 56 982.3
20260504212017 82 161 2.0 6.0 0.00 0.00 0.00 55 982.5
20260504211016 82 209 3.0 12.0 0.00 0.00 0.00 55 982.7
20260504210036 82 175 1.0 6.0 0.00 0.00 0.00 55 983.0
20260504205016 81 142 4.0 10.0 0.00 0.00 0.00 55 983.2
20260504204016 81 205 3.0 10.0 0.00 0.00 0.00 54 983.4
20260504203016 82 191 5.0 10.0 0.00 0.00 0.00 53 983.4
20260504202016 82 199 2.0 7.0 0.00 0.00 0.00 53 983.8
20260504201016 81 196 2.0 6.0 0.00 0.00 0.00 54 983.8
20260504200016 81 176 1.0 11.0 0.00 0.00 0.00 53 984.1
20260504195017 81 187 5.0 10.0 0.00 0.00 0.00 52 984.2
20260504194016 81 151 1.0 6.0 0.00 0.00 0.00 52 984.4
20260504193017 81 194 3.0 7.0 0.00 0.00 0.00 53 984.5
20260504192017 82 208 4.0 8.0 0.00 0.00 0.00 52 984.8
20260504191036 80 179 1.0 7.0 0.00 0.00 0.00 52 984.9
20260504190016 80 188 0.0 5.0 0.00 0.00 0.00 52 985.0
20260504185017 79 146 4.0 9.0 0.00 0.00 0.00 52 985.1
20260504184016 80 180 3.0 7.0 0.00 0.00 0.00 52 985.3
20260504183016 79 198 3.0 7.0 0.00 0.00 0.00 51 985.4
20260504182016 79 166 4.0 10.0 0.00 0.00 0.00 51 985.6
20260504181016 79 177 1.0 4.0 0.00 0.00 0.00 50 985.6
20260504180016 79 158 4.0 8.0 0.00 0.00 0.00 49 985.6
20260504175016 78 179 2.0 9.0 0.00 0.00 0.00 49 986.0
20260504174016 78 180 3.0 5.0 0.00 0.00 0.00 48 986.2
20260504173016 77 173 2.0 7.0 0.00 0.00 0.00 48 986.2
20260504172017 77 187 5.0 9.0 0.00 0.00 0.00 48 986.4
20260504171016 77 172 3.0 8.0 0.00 0.00 0.00 47 986.6
20260504151016 71 202 2.0 6.0 0.00 0.00 0.00 61 987.9
20260504141036 68 220 3.0 7.0 0.00 0.00 0.00 68 988.2